STARLINK-34170, 63955

Orbit data source: Space-Track

STARLINK-34170, 63955 is a payload satellite owned by SpaceX/Seattle (US) in LEO that was launched on Tue, 13 May 2025 UTC via an FALCON 9 launch vehicle from the Air Force Eastern Test Range (AFETR). Payload-class satellites include a variety of spacecraft equipped with specific instruments for various scientific and technological missions. These include communications satellites like Starlink; space stations such as the ISS; scientific satellites like the Hubble; Earth observation satellites from companies like Planet Labs, Umbra, and HawkEye 360; GPS; miniature CubeSats for education and research; and military/defense satellites.

Loading next visibility...
Identifier
63955, 2025-099D
Orbit
LEO
Country
Flag of USUS
Related business
Manufacturer
SpaceX/Seattle
Mission
Operational Commercial Communications
Bus & Motor
STARLINK V2MO, Unknown motor
Mass
575 kg wet, ~530 kg dry
Launch date (UTC)
2025-05-13 (11 months ago)
Launch vehicle
FALCON 9
Launch site
Air Force Eastern Test Range (AFETR)
Object type
Payload
Rocket body
Debris
Shape & HBR
Box + 2 Pan, 17.7 m
Radar Cross Section
36.964 m², Large (>1 m²)

Expand to show TLE details & history
Last TLE update: 23 hours ago

TLE from 23 hours ago
0 STARLINK-34170
1 63955U 25099D   26093.54478786  .00036596  00000-0  13301-2 0  9991
2 63955  43.0035  36.1956 0003671 278.8233  81.2203 15.27644153 51128
Epoch: 2026-04-03T13:04Z
TLE epoch observation values (Epoch: 2026-04-03T13:04:29.671Z)
Latitude
-0°
Longitude
8.19459°
Altitude
482.249 km
Speed
7.626 km/s
True Right ascension
02h 24m 46s
True Declination
0° 00' 00"
Sunlit
Object was in daylight at epoch
Visualization orbit readout
Latitude
Unknown
Longitude
Unknown
Altitude
Unknown
Speed
Unknown
Apparent Right ascension
Unknown
Apparent Declination
Unknown
Sunlit
N/A
Visualization observer readout
Local Sidereal Time
18:18:54
Azimuth
Unknown
Elevation
Unknown
Doppler factor
Unknown
Orbital elements
Apogee altitude
487.321 km
Perigee altitude
482.282 km
Semi-major axis
6,862.939 km
Eccentricity
0.00037
Inclination
43.0035°
RAAN
36.1956°
Arg. of periapsis
278.8233°
True anomaly
81.26188°
Mean anomaly
81.2203°
Eccentric anomaly
81.24109°
Mean motion
3.81749 °/min
Orbital period
94.3 mins
BSTAR
0.0013301
Loading maneuver chart data...
Computing Atmospheric mass density...
Loading historical data...
Loading historical data...
Loading historical data...
Loading historical data...
Loading historical data...
Loading historical data...
Loading historical data...

Documentation

Showing up to 5 results
|